Date,TemperatureHighF,TemperatureAvgF,TemperatureLowF,DewpointHighF,DewpointAvgF,DewpointLowF,HumidityHigh,HumidityAvg,HumidityLow,PressureMaxIn,PressureMinIn,WindSpeedMaxMPH,WindSpeedAvgMPH,GustSpeedMaxMPH,PrecipitationSumIn
2013-7-1,79,68,58,61,56,53,87,66,43,30.03,29.95,6,2,12,0.00
2013-7-2,77,68,58,62,57,53,89,70,50,30.05,30.00,7,2,12,0.00
2013-7-3,80,69,58,64,59,55,93,73,47,30.07,29.99,4,1,6,0.00
2013-7-4,85,74,61,67,63,59,95,70,45,30.06,29.98,10,4,11,0.00
2013-7-5,85,75,63,70,64,60,96,72,45,30.05,29.96,9,4,13,0.00
2013-7-6,86,75,63,72,67,61,97,79,51,30.02,29.93,10,4,12,0.00
2013-7-7,90,80,68,74,70,63,91,72,54,29.97,29.92,11,5,14,0.00
2013-7-8,86,79,73,78,74,70,92,86,73,30.01,29.94,13,6,18,0.19
2013-7-9,90,82,76,80,76,72,92,81,67,29.98,29.84,10,5,13,0.01
2013-7-10,87,80,67,76,70,62,93,75,52,30.00,29.81,12,3,19,0.01
2013-7-11,82,72,61,66,62,58,94,73,47,30.07,30.00,5,1,11,0.00
2013-7-12,82,70,54,66,59,52,97,71,43,30.13,30.04,7,2,10,0.00
2013-7-13,82,71,56,67,62,54,96,75,50,30.12,30.03,9,3,12,0.00
2013-7-14,87,76,63,73,68,61,96,77,56,30.14,30.06,10,3,12,0.00
2013-7-15,89,80,70,77,73,68,96,81,61,30.21,30.13,9,3,11,0.00
2013-7-16,91,82,72,79,75,70,98,81,61,30.27,30.19,7,2,10,0.00
2013-7-17,94,84,71,79,75,70,96,77,53,30.29,30.15,6,1,7,0.00
2013-7-18,93,84,73,79,75,71,96,77,57,30.17,29.95,7,3,10,0.00
2013-7-19,94,84,74,77,74,71,91,73,48,29.95,29.78,15,6,18,0.00
2013-7-20,88,79,69,72,70,66,91,74,49,29.89,29.80,6,2,7,0.00
2013-7-21,80,72,65,75,69,63,97,91,77,29.90,29.82,7,2,9,0.08
2013-7-22,87,76,64,77,71,63,98,86,65,29.86,29.73,9,2,12,0.04
2013-7-23,81,72,64,72,66,61,95,82,63,29.92,29.75,7,2,14,0.00
2013-7-24,78,68,58,61,59,56,96,75,51,30.04,29.91,6,2,15,0.00
2013-7-25,82,69,53,65,60,51,97,75,49,30.10,30.02,6,1,9,0.00
2013-7-26,77,68,60,72,64,58,95,88,80,30.03,29.87,12,4,22,0.78
2013-7-27,68,61,53,58,54,50,97,78,54,29.99,29.93,18,7,22,0.00
2013-7-28,74,62,48,61,53,47,95,76,52,30.05,29.95,12,6,17,0.00
2013-7-29,78,66,51,66,58,49,97,78,53,30.15,30.05,4,1,9,0.00
2013-7-30,73,67,63,70,66,61,98,94,79,30.12,29.99,10,4,12,0.91
2013-7-31,77,70,65,71,68,64,98,91,76,30.04,29.97,9,3,12,0.04